GW6920 Weather Reports


Display with metric or nautical units.
time (UTC)temp
F
wind
direction
speed
MPH
gust
MPH
rain 1hr
in
rain 24hr
in
rain mn
in
humidity
%
barometer
mb
20260505083306 60 235 1.0 2.0 0.00 0.00 0.00 60 1011.0
20260505082802 60 263 0.0 1.0 0.00 0.00 0.00 60 1011.1
20260505082259 60 1 0.0 1.0 0.00 0.00 0.00 60 1011.0
20260505081755 60 232 2.0 3.0 0.00 0.00 0.00 60 1011.1
20260505081252 60 227 0.0 1.0 0.00 0.00 0.00 61 1010.9
20260505080749 60 224 0.0 1.0 0.00 0.00 0.00 61 1011.1
20260505080244 60 245 0.0 1.0 0.00 0.00 0.00 61 1010.8
20260505075740 60 195 1.0 2.0 0.00 0.00 0.00 61 1010.7
20260505075237 60 332 0.0 0.0 0.00 0.00 0.00 61 1010.8
20260505074735 60 333 0.0 1.0 0.00 0.00 0.00 60 1010.9
20260505074232 60 284 0.0 0.0 0.00 0.00 0.00 60 1010.9
20260505073729 60 273 0.0 1.0 0.00 0.00 0.00 59 1010.7
20260505073227 60 223 0.0 1.0 0.00 0.00 0.00 60 1010.9
20260505072723 59 247 0.0 2.0 0.00 0.00 0.00 61 1010.7
20260505072220 59 266 1.0 2.0 0.00 0.00 0.00 62 1010.7
20260505071715 59 254 0.0 0.0 0.00 0.00 0.00 62 1010.6
20260505071213 59 254 0.0 0.0 0.00 0.00 0.00 61 1010.7
20260505070710 59 254 0.0 1.0 0.00 0.00 0.00 61 1010.8
20260505070206 59 243 0.0 1.0 0.00 0.00 0.00 61 1010.6
20260505065702 59 271 1.0 1.0 0.00 0.00 0.00 61 1010.8
20260505065159 59 270 0.0 0.0 0.00 0.00 0.00 61 1010.7
20260505064656 59 270 0.0 0.0 0.00 0.00 0.00 61 1010.8
20260505064154 59 270 0.0 0.0 0.00 0.00 0.00 62 1010.7
20260505063651 58 271 0.0 0.0 0.00 0.00 0.00 63 1010.6
20260505063147 58 268 0.0 1.0 0.00 0.00 0.00 64 1010.6
20260505062643 57 267 0.0 0.0 0.00 0.00 0.00 65 1010.6
20260505062141 57 267 0.0 0.0 0.00 0.00 0.00 66 1010.7
20260505061638 56 267 0.0 0.0 0.00 0.00 0.00 67 1010.7
20260505061136 56 267 0.0 1.0 0.00 0.00 0.00 69 1010.8
20260505060633 57 267 0.0 0.0 0.00 0.00 0.00 69 1010.4
20260505060130 57 267 0.0 0.0 0.00 0.00 0.00 68 1010.6
20260505055625 57 267 0.0 0.0 0.00 0.00 0.00 68 1010.5
20260505055122 57 267 0.0 1.0 0.00 0.00 0.00 67 1010.8
20260505054620 58 267 0.0 0.0 0.00 0.00 0.00 66 1010.7
20260505054118 57 267 0.0 1.0 0.00 0.00 0.00 66 1010.6
20260505053614 58 267 0.0 0.0 0.00 0.00 0.00 66 1010.7
20260505053111 58 267 0.0 0.0 0.00 0.00 0.00 65 1010.7
20260505052608 58 267 0.0 0.0 0.00 0.00 0.00 65 1010.9
20260505052106 58 267 0.0 0.0 0.00 0.00 0.00 64 1010.7
20260505051602 59 267 0.0 0.0 0.00 0.00 0.00 64 1010.6
20260505051100 59 267 0.0 0.0 0.00 0.00 0.00 63 1010.7
20260505050558 59 267 0.0 0.0 0.00 0.00 0.00 63 1010.6
20260505041526 62 267 0.0 0.0 0.00 0.00 0.00 57 1010.9
20260505041023 62 267 0.0 0.0 0.00 0.00 0.00 56 1011.0
20260505040520 62 267 0.0 0.0 0.00 0.00 0.00 56 1010.9
20260505040018 62 267 0.0 0.0 0.00 0.00 0.00 56 1010.9
20260505035513 62 267 0.0 0.0 0.00 0.00 0.00 56 1010.6
20260505035010 62 267 0.0 0.0 0.00 0.00 0.00 56 1010.6
20260505034507 62 267 0.0 0.0 0.00 0.00 0.00 56 1010.8
20260505034004 62 267 0.0 0.0 0.00 0.00 0.00 55 1010.6
20260505033501 63 267 0.0 0.0 0.00 0.00 0.00 55 1010.7
20260505032959 63 267 0.0 0.0 0.00 0.00 0.00 53 1010.5
20260505032456 63 267 0.0 0.0 0.00 0.00 0.00 53 1010.6
20260505031952 63 267 0.0 0.0 0.00 0.00 0.00 53 1010.7
20260505031449 63 267 0.0 0.0 0.00 0.00 0.00 53 1010.6
20260505030946 63 267 0.0 0.0 0.00 0.00 0.00 53 1010.8
20260505030442 64 267 0.0 0.0 0.00 0.00 0.00 52 1010.7
20260505025937 65 267 0.0 0.0 0.00 0.00 0.00 51 1010.6
20260505025435 65 267 0.0 0.0 0.00 0.00 0.00 50 1010.7
20260505024934 66 267 0.0 0.0 0.00 0.00 0.00 49 1010.5
20260505024431 66 267 0.0 0.0 0.00 0.00 0.00 48 1010.5
20260505023928 66 267 0.0 0.0 0.00 0.00 0.00 47 1010.5
20260505023425 67 267 0.0 0.0 0.00 0.00 0.00 47 1010.6
20260505022922 67 267 0.0 0.0 0.00 0.00 0.00 46 1010.6
20260505022420 67 267 0.0 1.0 0.00 0.00 0.00 46 1010.6
20260505021916 67 244 0.0 1.0 0.00 0.00 0.00 46 1010.5
20260505021413 67 259 1.0 1.0 0.00 0.00 0.00 46 1010.6
20260505020909 67 251 0.0 1.0 0.00 0.00 0.00 46 1010.6
20260505020404 67 250 0.0 0.0 0.00 0.00 0.00 45 1010.4
20260505015901 68 245 0.0 0.0 0.00 0.00 0.00 45 1010.6
20260505015358 68 257 0.0 0.0 0.00 0.00 0.00 44 1010.6
20260505014856 68 261 0.0 2.0 0.00 0.00 0.00 43 1010.4
20260505014352 68 287 0.0 1.0 0.00 0.00 0.00 43 1010.4
20260505013849 68 264 0.0 2.0 0.00 0.00 0.00 43 1010.2
20260505013346 68 248 0.0 0.0 0.00 0.00 0.00 43 1010.4
20260505012845 68 259 0.0 1.0 0.00 0.00 0.00 43 1010.2
20260505012343 68 275 1.0 1.0 0.00 0.00 0.00 43 1010.0
20260505011838 69 10 0.0 1.0 0.00 0.00 0.00 43 1009.9
20260505011335 69 19 0.0 0.0 0.00 0.00 0.00 42 1009.9
20260505010831 69 276 0.0 1.0 0.00 0.00 0.00 42 1010.0
20260505010327 69 291 0.0 1.0 0.00 0.00 0.00 42 1010.0
20260505005823 69 262 0.0 2.0 0.00 0.00 0.00 41 1010.0
20260505005320 69 246 0.0 2.0 0.00 0.00 0.00 41 1009.9
20260505004818 69 239 0.0 0.0 0.00 0.00 0.00 40 1009.7
20260505004314 70 201 0.0 0.0 0.00 0.00 0.00 40 1009.8
20260505003812 70 201 0.0 0.0 0.00 0.00 0.00 39 1009.7
20260505003309 71 201 0.0 0.0 0.00 0.00 0.00 38 1009.8
20260505002805 71 201 0.0 1.0 0.00 0.00 0.00 37 1009.7
20260505002304 72 203 0.0 1.0 0.00 0.00 0.00 37 1009.8
20260505001800 72 202 0.0 1.0 0.00 0.00 0.00 36 1009.9
20260505001257 73 211 0.0 1.0 0.00 0.00 0.00 35 1009.6
20260505000754 73 166 0.0 3.0 0.00 0.00 0.00 35 1009.7
20260505000252 73 258 1.0 3.0 0.00 0.00 0.00 35 1009.8
20260504235748 73 71 0.0 3.0 0.00 0.00 0.00 34 1009.5
20260504235244 73 246 1.0 6.0 0.00 0.00 0.00 34 1009.3
20260504234742 73 94 1.0 1.0 0.00 0.00 0.00 34 1009.6
20260504234239 74 317 0.0 2.0 0.00 0.00 0.00 34 1009.5
20260504233735 74 260 2.0 3.0 0.00 0.00 0.00 34 1009.6
20260504233231 74 213 1.0 6.0 0.00 0.00 0.00 33 1009.8
20260504232729 74 301 3.0 3.0 0.00 0.00 0.00 33 1009.4
20260504232225 74 248 0.0 3.0 0.00 0.00 0.00 33 1009.1
20260504231722 75 223 1.0 3.0 0.00 0.00 0.00 32 1009.4
20260504231219 75 245 1.0 3.0 0.00 0.00 0.00 32 1009.5
20260504230715 75 228 1.0 1.0 0.00 0.00 0.00 32 1009.4
20260504230214 75 268 1.0 6.0 0.00 0.00 0.00 31 1009.4
20260504225712 76 279 4.0 7.0 0.00 0.00 0.00 30 1009.4
20260504225207 77 240 1.0 6.0 0.00 0.00 0.00 30 1009.5
20260504224705 77 103 1.0 2.0 0.00 0.00 0.00 29 1009.2
20260504224202 77 162 2.0 6.0 0.00 0.00 0.00 30 1009.2
20260504223658 77 215 2.0 6.0 0.00 0.00 0.00 31 1009.5
20260504223154 77 251 1.0 3.0 0.00 0.00 0.00 31 1009.4
20260504222651 77 256 2.0 9.0 0.00 0.00 0.00 30 1009.3
20260504222148 78 92 1.0 2.0 0.00 0.00 0.00 30 1009.4
20260504221645 78 88 1.0 2.0 0.00 0.00 0.00 29 1009.4
20260504221142 77 102 2.0 4.0 0.00 0.00 0.00 29 1009.3
20260504220638 78 139 2.0 3.0 0.00 0.00 0.00 29 1009.4
20260504220137 78 176 1.0 4.0 0.00 0.00 0.00 29 1009.4
20260504215632 78 95 2.0 3.0 0.00 0.00 0.00 29 1009.5
20260504215130 77 160 1.0 1.0 0.00 0.00 0.00 29 1009.4
20260504214626 78 170 1.0 4.0 0.00 0.00 0.00 28 1009.5
20260504214122 78 209 5.0 9.0 0.00 0.00 0.00 29 1009.3
20260504213619 77 114 2.0 4.0 0.00 0.00 0.00 29 1009.6
20260504213116 77 323 1.0 3.0 0.00 0.00 0.00 30 1009.4
20260504212612 78 103 2.0 6.0 0.00 0.00 0.00 29 1009.6
20260504212109 79 221 7.0 11.0 0.00 0.00 0.00 28 1009.4
20260504211606 78 27 1.0 8.0 0.00 0.00 0.00 28 1009.4
20260504211103 78 219 2.0 3.0 0.00 0.00 0.00 28 1009.3
20260504210600 77 269 0.0 2.0 0.00 0.00 0.00 28 1009.3
20260504210056 76 273 2.0 4.0 0.00 0.00 0.00 28 1009.4
20260504205554 76 261 0.0 2.0 0.00 0.00 0.00 28 1009.6
20260504205052 77 172 2.0 4.0 0.00 0.00 0.00 27 1009.4
20260504204550 79 206 1.0 2.0 0.00 0.00 0.00 27 1009.5
20260504204049 80 341 2.0 3.0 0.00 0.00 0.00 25 1009.4
20260504203546 80 110 1.0 6.0 0.00 0.00 0.00 26 1009.4
20260504203044 80 102 2.0 2.0 0.00 0.00 0.00 26 1009.5
20260504202539 80 141 0.0 4.0 0.00 0.00 0.00 25 1009.4
20260504202036 81 241 2.0 2.0 0.00 0.00 0.00 25 1009.9
20260504201533 80 298 1.0 2.0 0.00 0.00 0.00 25 1009.6
20260504201031 80 308 2.0 4.0 0.00 0.00 0.00 25 1009.7
20260504200527 80 306 4.0 6.0 0.00 0.00 0.00 25 1009.8
20260504200024 81 196 1.0 4.0 0.00 0.00 0.00 25 1009.9
20260504195520 81 299 1.0 4.0 0.00 0.00 0.00 26 1009.9
20260504195017 80 266 1.0 2.0 0.00 0.00 0.00 27 1009.7
20260504194513 78 262 4.0 6.0 0.00 0.00 0.00 27 1009.7
20260504194008 79 206 2.0 4.0 0.00 0.00 0.00 26 1010.0
20260504193506 80 78 1.0 6.0 0.00 0.00 0.00 25 1010.1
20260504193005 80 23 2.0 6.0 0.00 0.00 0.00 24 1010.2
20260504192502 79 5 1.0 2.0 0.00 0.00 0.00 27 1010.3
20260504192000 79 274 3.0 4.0 0.00 0.00 0.00 25 1010.4
20260504191458 79 241 5.0 8.0 0.00 0.00 0.00 26 1010.6
20260504190953 78 87 2.0 7.0 0.00 0.00 0.00 29 1010.6
20260504190449 78 7 3.0 4.0 0.00 0.00 0.00 27 1010.7
20260504185946 79 272 0.0 2.0 0.00 0.00 0.00 26 1010.9
20260504185443 78 262 1.0 3.0 0.00 0.00 0.00 29 1010.9
20260504184939 78 130 2.0 2.0 0.00 0.00 0.00 27 1011.0
20260504184435 77 72 1.0 2.0 0.00 0.00 0.00 27 1011.3
20260504183931 77 248 0.0 7.0 0.00 0.00 0.00 27 1011.2
20260504183428 78 117 3.0 4.0 0.00 0.00 0.00 26 1011.3
20260504182926 78 189 1.0 4.0 0.00 0.00 0.00 28 1011.4
20260504182423 78 309 2.0 6.0 0.00 0.00 0.00 27 1011.6
20260504181920 77 269 2.0 3.0 0.00 0.00 0.00 28 1011.5
20260504181417 77 210 1.0 3.0 0.00 0.00 0.00 28 1011.5
20260504180916 77 287 2.0 4.0 0.00 0.00 0.00 27 1011.7
20260504180414 77 93 2.0 3.0 0.00 0.00 0.00 30 1011.7
20260504175912 76 123 1.0 3.0 0.00 0.00 0.00 29 1011.6
20260504175409 77 259 3.0 8.0 0.00 0.00 0.00 27 1011.8
20260504174907 75 109 2.0 3.0 0.00 0.00 0.00 29 1011.9
20260504174404 75 240 0.0 2.0 0.00 0.00 0.00 29 1012.1
20260504173901 76 170 0.0 2.0 0.00 0.00 0.00 29 1012.1
20260504173357 75 85 2.0 3.0 0.00 0.00 0.00 30 1012.0
20260504172855 75 164 1.0 2.0 0.00 0.00 0.00 29 1012.2
20260504172351 75 262 0.0 2.0 0.00 0.00 0.00 30 1012.5
20260504171847 75 152 1.0 2.0 0.00 0.00 0.00 30 1012.5
20260504171344 74 329 2.0 3.0 0.00 0.00 0.00 31 1012.6
20260504170842 75 221 1.0 6.0 0.00 0.00 0.00 31 1012.5
20260504170338 74 80 1.0 6.0 0.00 0.00 0.00 31 1012.6
20260504160256 70 264 2.0 4.0 0.00 0.00 0.00 33 1013.4
20260504150722 68 275 2.0 4.0 0.00 0.00 0.00 32 1013.7
20260504150219 68 219 1.0 3.0 0.00 0.00 0.00 31 1013.7
20260504141148 63 215 1.0 2.0 0.00 0.00 0.00 38 1013.9
20260504140645 63 292 1.0 3.0 0.00 0.00 0.00 39 1013.9
20260504140140 63 239 0.0 2.0 0.00 0.00 0.00 37 1014.0
20260504130609 57 290 1.0 2.0 0.00 0.00 0.00 47 1014.6
20260504130105 57 275 0.0 3.0 0.00 0.00 0.00 46 1014.8
20260504110456 49 261 0.0 2.0 0.00 0.00 0.00 63 1015.1
20260504100418 51 255 0.0 0.0 0.00 0.00 0.00 56 1014.9